[[{"header":{"parameterUnit":"m.s-1","parameterCategory":1,"la1":30.2991,"la2":30.254,"lo1":-89.0895,"lo2":-89.0444,"dy":0.0017,"dx":0.0017,"nx":28,"ny":28,"refTime":"2025-01-07T03:00:00:Z","depth":0,"parameterNumber":2,"parameterNumberName":"U-component_of_WINDS"},"data":[0,0,0,0,0,0,0,0,0,0,0,0,0,0,0,0,0,0,0,0,0,0,0,0,0,0,0,0,0,0,0,0,0,0,0,0,0,0,0,0,0,0,0,0,0,0,0,0,0,0,0,0,0,0,0,0,0,0,1.3241,1.3242,0,1.3285,1.3285,1.3286,1.3283,1.3282,1.3282,1.3281,1.3326,1.3328,1.3329,0,0,0,0,0,0,0,0,0,0,0,0,0,1.3157,1.3158,1.3241,1.3242,1.3242,1.3285,1.3285,1.3286,1.3283,1.3282,1.3282,1.3281,1.3325,1.3327,1.333,0,0,0,0,0,0,0,0,0,0,0,0,0,1.3196,1.3159,1.3241,1.3246,1.3247,1.3285,1.3285,1.3286,1.3283,1.3282,1.3281,1.328,1.3325,1.3327,1.333,1.3366,0,0,1.3338,1.3339,0,0,0,0,0,0,0,0,1.3194,1.3199,1.3245,1.3246,1.3247,1.3278,1.3272,1.3313,1.3284,1.3269,1.3281,1.328,1.3311,1.3314,1.3325,1.3368,1.337,1.3338,1.334,1.3341,1.3342,0,0,0,0,0,0,0,1.3191,1.3197,1.3259,1.3245,1.3247,1.3246,1.3251,1.328,1.3295,1.3271,1.3271,1.3276,1.3311,1.3322,1.3326,1.337,1.3338,1.3341,1.3342,1.3343,1.3447,1.3448,0,0,0,0,0,0,1.3187,1.3195,1.3257,1.326,1.3218,1.3249,1.3254,1.3269,1.3295,1.3298,1.3276,1.3275,1.3318,1.3323,1.3327,1.3372,1.3341,1.3344,1.3345,1.3446,1.3447,1.3448,0,0,0,0,0,0,1.3186,1.3193,1.3255,1.3228,1.3236,1.3251,1.3268,1.327,1.3281,1.3299,1.3302,1.3285,1.3317,1.3323,1.3357,1.3373,1.3345,1.3347,1.3444,1.3446,1.3448,1.3461,0,0,0,0,0,0,1.3183,1.3192,1.3206,1.3228,1.3237,1.3284,1.3269,1.3272,1.3286,1.3285,1.3308,1.3311,1.3317,1.3353,1.3359,1.3377,1.3349,1.3443,1.3445,1.3447,1.3459,1.3463,1.3466,0,0,0,0,0,1.318,1.3207,1.3206,1.3214,1.3254,1.3285,1.329,1.3297,1.3287,1.3301,1.3313,1.331,1.3371,1.3356,1.3363,1.3382,1.3442,1.3445,1.3447,1.3458,1.3462,1.3466,0,0,0,0,0,0,1.3186,1.321,1.3209,1.3245,1.3263,1.3284,1.3302,1.3301,1.3322,1.332,1.3328,1.3333,1.3367,1.3378,1.3361,1.3419,1.3405,1.3409,1.3411,1.3415,1.3419,1.3415,1.3352,0,0,0,0,0,1.3192,1.3214,1.3234,1.3263,1.3273,1.3286,1.3299,1.3303,1.3322,1.333,1.3344,1.3362,1.3386,1.3401,1.3423,1.3461,1.3467,1.3477,1.3481,1.3484,1.3487,1.3509,1.3515,1.3457,1.3457,1.3457,0,0,1.3203,1.3219,1.3233,1.3265,1.328,1.3303,1.3292,1.3317,1.3335,1.3333,1.3366,1.3377,1.3399,1.3434,1.3451,1.3444,1.3505,1.3487,1.3489,1.3491,1.3513,1.3518,1.3523,1.3459,1.3458,1.3458,0,0,1.3237,1.3251,1.3277,1.3292,1.3314,1.3323,1.3329,1.3351,1.3359,1.3391,1.3391,1.3413,1.3453,1.3468,1.3482,1.3523,1.3521,1.353,1.3548,1.357,1.3574,1.3578,1.3594,1.3599,1.3533,1.3533,1.3533,0,1.3248,1.3284,1.3291,1.3317,1.3331,1.3331,1.3359,1.3373,1.3401,1.3412,1.3404,1.3455,1.3469,1.351,1.352,1.353,1.3539,1.3527,1.3573,1.3577,1.3581,1.3596,1.3602,1.3534,1.3534,1.3534,1.3534,0,1.3297,1.3322,1.3341,1.3369,1.3386,1.3412,1.3424,1.344,1.3443,1.3453,1.3487,1.3504,1.3531,1.3541,1.3543,1.3582,1.3577,1.3571,1.3558,1.3588,1.3602,1.3608,1.3536,1.3535,1.3535,1.3535,0,0,1.3335,1.3367,1.3374,1.3387,1.3413,1.3432,1.3459,1.3486,1.35,1.352,1.3543,1.3578,1.3573,1.3588,1.3593,1.3611,1.3644,1.3603,1.3604,1.3611,1.3689,1.3694,1.37,1.3643,1.3645,1.3645,1.3687,0,1.3371,1.3419,1.3427,1.3469,1.3493,1.3494,1.3517,1.3536,1.3546,1.3568,1.358,1.3604,1.3596,1.3605,1.3623,1.3636,1.366,1.3633,1.3666,1.3667,1.3661,1.3707,1.3712,1.3751,1.3693,1.3694,1.3695,0,1.342,1.3442,1.3486,1.351,1.352,1.3541,1.3567,1.3587,1.3609,1.3615,1.3633,1.3636,1.3665,1.365,1.369,1.3672,1.3686,1.3695,1.3696,1.37,1.3683,1.3713,1.3763,1.3769,1.3703,1.3703,1.3702,0,1.3444,1.3484,1.3517,1.3528,1.3556,1.3571,1.3583,1.3604,1.3619,1.3642,1.3652,1.3678,1.3692,1.3712,1.3722,1.371,1.3763,1.3748,1.3769,1.3769,1.378,1.3779,1.3834,1.3788,1.3788,1.3788,1.3788,0,1.3484,1.3511,1.3528,1.3548,1.3579,1.3588,1.3619,1.3631,1.365,1.3673,1.3675,1.3696,1.3708,1.3732,1.374,1.3773,1.3779,1.3786,1.3787,1.3786,1.3785,1.3795,1.3793,1.379,1.3789,1.3789,1.3789,0,1.3516,1.3528,1.3564,1.3587,1.3594,1.3616,1.3637,1.3657,1.3667,1.3696,1.3704,1.372,1.3748,1.376,1.3795,1.38,1.3838,1.3838,1.3831,1.3832,1.3853,1.3851,1.3916,1.3926,1.3873,1.3874,1.3874,0,1.3541,1.3562,1.3589,1.3604,1.3617,1.3642,1.3658,1.3669,1.3686,1.3713,1.3729,1.3757,1.378,1.3825,1.3841,1.3867,1.3868,1.3889,1.3872,1.387,1.3869,1.3868,1.3871,1.3892,1.3893,1.3893,1.3894,0,1.3584,1.359,1.3613,1.3639,1.3659,1.368,1.37,1.3713,1.3727,1.3746,1.3775,1.3793,1.3828,1.3856,1.3884,1.3897,1.3898,1.3899,1.3905,1.3904,1.3899,1.3903,1.384,1.3897,1.3897,1.3897,1.3897,1.3896,1.3614,1.3633,1.3656,1.3682,1.3699,1.3718,1.3738,1.3752,1.3776,1.3806,1.3811,1.3842,1.3864,1.3902,1.3916,1.3941,1.3936,1.3945,1.3947,1.3949,1.3951,1.3895,1.3946,1.3946,1.3946,1.3946,1.3946,0,1.3658,1.3673,1.3697,1.3726,1.3747,1.3746,1.3769,1.3787,1.3815,1.3835,1.3858,1.3892,1.392,1.3938,1.3966,1.3983,1.3984,1.399,1.3989,1.3992,1.3954,1.3946,1.3989,1.3989,1.3989,1.3989,1.3989,1.3989,1.3684,1.3717,1.3725,1.3767,1.3782,1.3812,1.3826,1.3844,1.3861,1.3899,1.3922,1.3933,1.3954,1.3984,1.4009,1.4014,1.4025,1.4031,1.4036,1.3999,1.3995,1.3991,1.3983,1.4033,1.4033,1.4073,1.4073,1.4073]},{"header":{"parameterUnit":"m.s-1","parameterCategory":1,"la1":30.2991,"la2":30.254,"lo1":-89.0895,"lo2":-89.0444,"dy":0.0017,"dx":0.0017,"nx":28,"ny":28,"refTime":"2025-01-07T03:00:00:Z","depth":0,"parameterNumber":3,"parameterNumberName":"V-component_of_WINDS"},"data":[0,0,0,0,0,0,0,0,0,0,0,0,0,0,0,0,0,0,0,0,0,0,0,0,0,0,0,0,0,0,0,0,0,0,0,0,0,0,0,0,0,0,0,0,0,0,0,0,0,0,0,0,0,0,0,0,0,0,-4.2363,-4.2364,0,-4.2449,-4.245,-4.2451,-4.2457,-4.2456,-4.2455,-4.2454,-4.2538,-4.2541,-4.2544,0,0,0,0,0,0,0,0,0,0,0,0,0,-4.2201,-4.2204,-4.2363,-4.2364,-4.2365,-4.2449,-4.245,-4.2451,-4.2457,-4.2456,-4.2455,-4.2454,-4.2537,-4.254,-4.2544,0,0,0,0,0,0,0,0,0,0,0,0,0,-4.2277,-4.2205,-4.2363,-4.2378,-4.2381,-4.2449,-4.245,-4.2452,-4.2457,-4.2456,-4.2455,-4.2453,-4.2535,-4.254,-4.2544,-4.2602,0,0,-4.2559,-4.2561,0,0,0,0,0,0,0,0,-4.2273,-4.2283,-4.2375,-4.2377,-4.238,-4.2441,-4.2424,-4.2502,-4.2458,-4.2428,-4.2454,-4.2453,-4.2506,-4.2513,-4.2532,-4.2605,-4.2609,-4.2559,-4.2562,-4.2564,-4.2565,0,0,0,0,0,0,0,-4.2268,-4.228,-4.2397,-4.2376,-4.2379,-4.238,-4.2389,-4.2438,-4.2474,-4.2431,-4.2431,-4.2442,-4.2507,-4.2528,-4.2534,-4.261,-4.2559,-4.2563,-4.2566,-4.2568,-4.2737,-4.2738,0,0,0,0,0,0,-4.226,-4.2275,-4.2394,-4.2399,-4.2322,-4.2384,-4.2394,-4.2423,-4.2473,-4.248,-4.2443,-4.2441,-4.2521,-4.2529,-4.2537,-4.2609,-4.2564,-4.2568,-4.2571,-4.2735,-4.2737,-4.2739,0,0,0,0,0,0,-4.2256,-4.2271,-4.2391,-4.2338,-4.2353,-4.2388,-4.242,-4.2425,-4.2446,-4.2483,-4.2489,-4.2457,-4.252,-4.2531,-4.2586,-4.2612,-4.257,-4.2575,-4.2733,-4.2735,-4.2738,-4.2752,0,0,0,0,0,0,-4.2252,-4.2269,-4.2292,-4.2338,-4.2356,-4.2439,-4.2422,-4.2428,-4.2454,-4.2454,-4.2498,-4.2504,-4.252,-4.2579,-4.2591,-4.2618,-4.2578,-4.2731,-4.2734,-4.2737,-4.2749,-4.2754,-4.2759,0,0,0,0,0,-4.2246,-4.2291,-4.2293,-4.2307,-4.2385,-4.2441,-4.2451,-4.2469,-4.2456,-4.2479,-4.2503,-4.2502,-4.2607,-4.2585,-4.2598,-4.2626,-4.2729,-4.2733,-4.2737,-4.2747,-4.2753,-4.2759,0,0,0,0,0,0,-4.2244,-4.2297,-4.23,-4.2361,-4.2397,-4.2442,-4.2471,-4.2475,-4.2513,-4.2511,-4.2531,-4.2541,-4.2596,-4.2617,-4.2591,-4.2685,-4.2667,-4.2673,-4.267,-4.2676,-4.2681,-4.2675,-4.2582,0,0,0,0,0,-4.2252,-4.2294,-4.2337,-4.2387,-4.2405,-4.2435,-4.246,-4.2471,-4.2508,-4.2522,-4.255,-4.2585,-4.2626,-4.2652,-4.2691,-4.2752,-4.2762,-4.2778,-4.2783,-4.2787,-4.2792,-4.2827,-4.2835,-4.2751,-4.2751,-4.2751,0,0,-4.2266,-4.23,-4.2325,-4.2387,-4.2416,-4.2459,-4.2447,-4.2492,-4.2524,-4.2528,-4.2584,-4.2606,-4.2645,-4.2704,-4.2732,-4.2723,-4.2818,-4.2792,-4.2795,-4.2798,-4.2832,-4.284,-4.2847,-4.2754,-4.2753,-4.2753,0,0,-4.2314,-4.2344,-4.239,-4.242,-4.2465,-4.2485,-4.2496,-4.2541,-4.2556,-4.2612,-4.2617,-4.2655,-4.2724,-4.2753,-4.2777,-4.2839,-4.284,-4.2851,-4.2876,-4.291,-4.2917,-4.2923,-4.2946,-4.2954,-4.2856,-4.2856,-4.2856,0,-4.2326,-4.2392,-4.2412,-4.2459,-4.2486,-4.2495,-4.2542,-4.2569,-4.2623,-4.2642,-4.2632,-4.2721,-4.2749,-4.2815,-4.2831,-4.2849,-4.2863,-4.2846,-4.2915,-4.2921,-4.2927,-4.2949,-4.2957,-4.2857,-4.2857,-4.2857,-4.2857,0,-4.2405,-4.245,-4.2482,-4.2537,-4.2568,-4.2614,-4.2641,-4.267,-4.2679,-4.27,-4.2758,-4.2791,-4.2839,-4.2855,-4.2863,-4.2923,-4.2917,-4.2911,-4.2892,-4.2936,-4.2957,-4.2965,-4.2859,-4.2859,-4.2858,-4.2858,0,0,-4.2453,-4.2522,-4.2533,-4.2559,-4.261,-4.2645,-4.2691,-4.274,-4.2764,-4.2802,-4.2841,-4.2901,-4.2897,-4.2924,-4.2935,-4.2965,-4.3014,-4.2955,-4.2957,-4.2966,-4.3083,-4.3088,-4.3098,-4.3015,-4.3017,-4.3018,-4.308,0,-4.2508,-4.2593,-4.2614,-4.2686,-4.2729,-4.2739,-4.2779,-4.2815,-4.2836,-4.2875,-4.2897,-4.294,-4.293,-4.2947,-4.2977,-4.3002,-4.3038,-4.2997,-4.3052,-4.3053,-4.3042,-4.3109,-4.3114,-4.3171,-4.3089,-4.309,-4.3091,0,-4.2583,-4.2625,-4.2702,-4.275,-4.2768,-4.2805,-4.2852,-4.2889,-4.2929,-4.2942,-4.2974,-4.2984,-4.3032,-4.3012,-4.3079,-4.3051,-4.3074,-4.309,-4.3093,-4.3099,-4.3075,-4.3117,-4.3189,-4.3198,-4.3104,-4.3103,-4.3102,0,-4.2612,-4.2688,-4.2744,-4.2766,-4.2822,-4.2848,-4.2872,-4.2912,-4.294,-4.2981,-4.2999,-4.3044,-4.3069,-4.3103,-4.3124,-4.3107,-4.319,-4.3171,-4.3203,-4.3202,-4.322,-4.3218,-4.3297,-4.3234,-4.3234,-4.3233,-4.3233,0,-4.2671,-4.2718,-4.2759,-4.2793,-4.2846,-4.287,-4.2922,-4.2946,-4.2981,-4.302,-4.3031,-4.3067,-4.3093,-4.3133,-4.3149,-4.3203,-4.3214,-4.3226,-4.323,-4.3225,-4.3224,-4.3241,-4.3238,-4.3236,-4.3235,-4.3235,-4.3234,0,-4.2712,-4.2741,-4.2804,-4.2853,-4.2867,-4.2904,-4.2946,-4.298,-4.3002,-4.3052,-4.3065,-4.3099,-4.3147,-4.3172,-4.323,-4.3241,-4.3302,-4.3303,-4.3289,-4.3291,-4.3322,-4.3319,-4.3415,-4.3429,-4.3355,-4.3356,-4.3356,0,-4.2749,-4.2786,-4.284,-4.2868,-4.2894,-4.2938,-4.2969,-4.2993,-4.3024,-4.3074,-4.3102,-4.3151,-4.3191,-4.3267,-4.3296,-4.3341,-4.3344,-4.3375,-4.3351,-4.3346,-4.3346,-4.3344,-4.3348,-4.3379,-4.338,-4.338,-4.3381,0,-4.281,-4.2823,-4.2867,-4.2917,-4.2953,-4.2992,-4.3031,-4.3053,-4.3084,-4.3118,-4.3168,-4.32,-4.3261,-4.331,-4.3358,-4.3381,-4.3387,-4.3388,-4.3398,-4.3394,-4.3385,-4.3392,-4.3302,-4.3386,-4.3385,-4.3385,-4.3385,-4.3384,-4.2851,-4.2885,-4.2929,-4.2978,-4.3011,-4.3047,-4.3082,-4.311,-4.3153,-4.3207,-4.3218,-4.3272,-4.3312,-4.3378,-4.3403,-4.3445,-4.3438,-4.3452,-4.3456,-4.3459,-4.3461,-4.3378,-4.3453,-4.3453,-4.3453,-4.3453,-4.3453,0,-4.2914,-4.2944,-4.2988,-4.3044,-4.3083,-4.3086,-4.313,-4.3162,-4.3209,-4.3247,-4.3288,-4.3346,-4.3394,-4.3428,-4.3476,-4.3503,-4.3506,-4.3515,-4.3513,-4.3519,-4.3464,-4.3451,-4.3511,-4.3511,-4.3511,-4.3511,-4.3511,-4.3511,-4.2951,-4.301,-4.3028,-4.3103,-4.3132,-4.3186,-4.3211,-4.3245,-4.3276,-4.3342,-4.3382,-4.3405,-4.3442,-4.3494,-4.3537,-4.3546,-4.3564,-4.3572,-4.3581,-4.3529,-4.3523,-4.3517,-4.3505,-4.3575,-4.3575,-4.3633,-4.3633,-4.3634]}]]